User: anonymous   Login
Location: Unspecified
(0.0000°N, 0.0000°E)
Time: 10:19:43
(UTC+00:00)
Language:

LATINSAT B - Orbit

View from above orbital plane
View from above orbital plane
View from above satellite
View from above satellite

Ground track
Ground track

The orbit data is extracted from the following two-line orbital elements,

1 27606U 02058B   18232.46199100 -.00000066  00000-0  11903-4 0  9993
2 27606  64.5571 319.4065 0078517 323.1535  36.4184 14.72161820841077
Epoch (UTC): 20 August 2018 11:05:16
Eccentricity: 0.0078517
inclination: 64.5571°
perigee height: 599 km
apogee height: 709 km
right ascension of ascending node: 319.4065°
argument of perigee: 323.1535°
revolutions per day: 14.72161820
mean anomaly at epoch: 36.4184°
orbit number at epoch: 84107

The dashed part of the orbit path shows where the satellite is in the earth's shadow,  

DLR